Weather History for LPFR - May, 2013

Change the Weather History Date:

Sunday, May 5, 2013

  Actual Average Record
Temperature  
Mean Temperature 65 °F -  
Max Temperature 73 °F 72 °F 79 °F (2014)
Min Temperature 57 °F 58 °F 50 °F (2001)
Growing Degree Days 15 (Base 50)    
Moisture  
Dew Point 52 °F    
Average Humidity 59    
Maximum Humidity 73    
Minimum Humidity 39    
Precipitation  
Precipitation 0.00 in 0.02 in - ()
Sea Level Pressure  
Sea Level Pressure 30.10 in    
Wind  
Wind Speed 5 mph ()    
Max Wind Speed 13 mph    
Max Gust Speed -    
Visibility 8.7 miles    
Events      
Averages and records for this station are not official NWS values.
T = Trace of Precipitation, MM = Missing Value Source: Averaged Metar Reports

Daily Weather History Graph

Daily Weather History Graph

Search for Another Location

Airport or City:

Trip Planner

Search our weather history database for the weather conditions in past years. The results will help you decide how hot, cold, wet, or windy it might be!

Date:

Astronomy

May. 05, 2013 Rise Set
Actual Time 6:33 AM WEST 8:24 PM WEST
Civil Twilight 6:04 AM WEST 8:52 PM WEST
Nautical Twilight 5:30 AM WEST 9:27 PM WEST
Astronomical Twilight 4:54 AM WEST 10:03 PM WEST
Moon 3:50 AM WEST (5/5) 4:15 PM WEST (5/5)
Length of Visible Light 14h 47m
Length of Day
13h 51m
Waning Crescent, 20% of the Moon is Illuminated
May 5
Waning Crescent
May 10
New
May 18
First Quarter
May 25
Full
May 31
Last Quarter

Hourly Weather History & Observations

Time (WEST) Temp. Dew Point Humidity Pressure Visibility Wind Dir Wind Speed Gust Speed Precip Events Conditions
12:00 AM 60.8 °F 51.8 °F 72% 30.09 in - West 4.6 mph - N/A   Clear
12:30 AM 62.6 °F 51.8 °F 68% 30.09 in - West 4.6 mph - N/A   Clear
1:00 AM 63 °F 50 °F 53% 30.13 in 12 mi 2.2 mph - -  
1:00 AM 62.6 °F 51.8 °F 68% 30.09 in - Variable 1.2 mph - N/A   Clear
1:30 AM 64.4 °F 48.2 °F 56% 30.09 in - SSE 3.5 mph - N/A   Clear
2:00 AM 66.2 °F 50.0 °F 56% 30.09 in - Variable 3.5 mph - N/A   Clear
2:30 AM 66.2 °F 50.0 °F 56% 30.06 in - Variable 3.5 mph - N/A   Clear
3:00 AM 64.4 °F 51.8 °F 64% 30.06 in - East 3.5 mph - N/A   Clear
3:30 AM 62.6 °F 51.8 °F 68% 30.06 in - East 3.5 mph - N/A   Clear
4:00 AM 63 °F 46 °F 42% 30.10 in - Calm Calm - -  
4:00 AM 62.6 °F 46.4 °F 55% 30.06 in - East 3.5 mph - N/A   Clear
4:30 AM 62.6 °F 46.4 °F 55% 30.06 in - Calm Calm - N/A   Clear
5:00 AM 60.8 °F 48.2 °F 63% 30.06 in - Calm Calm - N/A   Clear
5:30 AM 60.8 °F 48.2 °F 63% 30.06 in - NNE 5.8 mph - N/A   Clear
6:00 AM 59.0 °F 48.2 °F 67% 30.06 in - NNE 5.8 mph - N/A   Clear
6:30 AM 59.0 °F 48.2 °F 67% 30.09 in - NNE 4.6 mph - N/A   Clear
7:00 AM 61 °F 46 °F 48% 30.13 in 12 mi NNE 4.5 mph - -   Partly Cloudy
7:00 AM 60.8 °F 48.2 °F 63% 30.09 in - NNE 5.8 mph - N/A   Clear
7:30 AM 57.2 °F 48.2 °F 72% 30.09 in - NNE 4.6 mph - N/A   Clear
8:00 AM 64.4 °F 50.0 °F 59% 30.09 in - North 3.5 mph - N/A   Clear
8:30 AM 68.0 °F 51.8 °F 56% 30.12 in - NNE 3.5 mph - N/A   Clear
9:00 AM 69.8 °F 50.0 °F 49% 30.12 in - SW 3.5 mph - N/A   Clear
9:30 AM 69.8 °F 53.6 °F 56% 30.12 in - SSE 5.8 mph - N/A   Clear
10:00 AM 70 °F 52 °F 42% 30.16 in 12 mi South 6.7 mph - -   Partly Cloudy
10:00 AM 69.8 °F 55.4 °F 60% 30.12 in - South 6.9 mph - N/A   Clear
10:30 AM 69.8 °F 57.2 °F 64% 30.12 in - South 6.9 mph - N/A   Clear
11:00 AM 68.0 °F 57.2 °F 68% 30.12 in - South 9.2 mph - N/A   Clear
11:30 AM 69.8 °F 59.0 °F 68% 30.15 in - SSE 9.2 mph - N/A   Clear
12:00 PM 69.8 °F 59.0 °F 68% 30.15 in - SE 9.2 mph - N/A   Clear
12:30 PM 68.0 °F 53.6 °F 60% 30.15 in - SE 9.2 mph - N/A   Clear
1:00 PM 70 °F 55 °F 50% 30.17 in 12 mi South 6.7 mph - -   Partly Cloudy
1:00 PM 68.0 °F 57.2 °F 68% 30.15 in 6.2 mi South 9.2 mph - N/A   Partly Cloudy
1:30 PM 69.8 °F 55.4 °F 60% 30.12 in 6.2 mi South 8.1 mph - N/A   Partly Cloudy
2:00 PM 69.8 °F 59.0 °F 68% 30.12 in 6.2 mi SSW 5.8 mph - N/A   Partly Cloudy
2:30 PM 69.8 °F 57.2 °F 64% 30.12 in 6.2 mi SW 8.1 mph - N/A   Partly Cloudy
3:00 PM 69.8 °F 57.2 °F 64% 30.12 in 6.2 mi SW 8.1 mph - N/A   Partly Cloudy
3:30 PM 69.8 °F 55.4 °F 60% 30.09 in 6.2 mi SW 8.1 mph - N/A   Partly Cloudy
4:00 PM 71 °F 51 °F 39% 30.13 in 12 mi SW 6.7 mph - -   Scattered Clouds
4:00 PM 69.8 °F 55.4 °F 60% 30.09 in 6.2 mi SW 8.1 mph - N/A   Partly Cloudy
4:30 PM 69.8 °F 55.4 °F 60% 30.09 in 6.2 mi WSW 9.2 mph - N/A   Partly Cloudy
5:00 PM 71.6 °F 57.2 °F 60% 30.09 in 6.2 mi WSW 12.7 mph - N/A   Partly Cloudy
5:30 PM 71.6 °F 55.4 °F 57% 30.09 in - West 11.5 mph - N/A   Clear
6:00 PM 71.6 °F 51.8 °F 50% 30.09 in - West 9.2 mph - N/A   Clear
6:30 PM 71.6 °F 48.2 °F 43% 30.09 in - SW 5.8 mph - N/A   Clear
7:00 PM 71 °F 53 °F 42% 30.11 in 12 mi WSW 6.7 mph - -   Clear
7:00 PM 69.8 °F 55.4 °F 60% 30.06 in - SW 5.8 mph - N/A   Clear
7:30 PM 69.8 °F 53.6 °F 56% 30.09 in - West 6.9 mph - N/A   Clear
8:00 PM 68.0 °F 53.6 °F 60% 30.09 in - West 6.9 mph - N/A   Clear
8:30 PM 66.2 °F 55.4 °F 68% 30.09 in - West 6.9 mph - N/A   Clear
9:00 PM 66.2 °F 55.4 °F 68% 30.09 in - West 6.9 mph - N/A   Clear
9:30 PM 64.4 °F 55.4 °F 73% 30.12 in - West 4.6 mph - N/A   Clear
10:00 PM 65 °F 51 °F 50% 30.15 in 12 mi NW 4.5 mph - -   Partly Cloudy
10:00 PM 66.2 °F 53.6 °F 64% 30.12 in - NNW 4.6 mph - N/A   Clear
10:30 PM 64.4 °F 51.8 °F 64% 30.12 in - NNW 8.1 mph - N/A   Clear
11:00 PM 66.2 °F 46.4 °F 49% 30.12 in - NNW 8.1 mph - N/A   Clear
11:30 PM 66.2 °F 42.8 °F 43% 30.12 in - NNW 9.2 mph - N/A   Clear